Location: Leverkusen
(51.0459°N, 7.0192°E)
Time: 02:22:21
(UTC+01:00)

ISS - Pass Details

Date: 30 January 2019
Orbit: 403 x 411 km, 51.6° (Epoch: 17 February)

Event Time Altitude Azimuth Distance (km) Brightness Sun altitude
Rises 18:59:58 0° 265° (W) 2,334 1.9 -15.9°
Reaches altitude 10° 19:02:03 10° 266° (W) 1,475 0.4 -16.2°
Maximum altitude 19:05:21 81° 353° (N) 421 -3.9 -16.7°
Enters shadow 19:06:10 48° 74° (ENE) 545 -3.7 -16.8°
